This is the latest recevied weather packets stored in our database for station/object BV5AB-13. If no packets are shown the sender has not sent any weather packets the latest 10 day(s).
| Time | Temp. | Humidity | Pressure | Rain* | Wind** | Luminosity | Snow |
|---|---|---|---|---|---|---|---|
| 1778145424 | 27.78° C | 68% | 1000.6 hPa | 0 mm | - | - | - |
| 1778144823 | 28.33° C | 66% | 1000.5 hPa | 0 mm | - | - | - |
| 1778144224 | 28.33° C | 64% | 1000.4 hPa | 0 mm | - | - | - |
| 1778143624 | 28.89° C | 63% | 1000.3 hPa | 0 mm | - | - | - |
| 1778143023 | 29.44° C | 60% | 1000.2 hPa | 0 mm | - | - | - |
| 1778142423 | 29.44° C | 62% | 1000.2 hPa | 0 mm | - | - | - |
| 1778141825 | 30° C | 58% | 1000.1 hPa | 0 mm | - | - | - |
| 1778141223 | 30° C | 56% | 1000 hPa | 0 mm | - | - | - |
| 1778140623 | 30° C | 56% | 1000 hPa | 0 mm | - | - | - |
| 1778140023 | 30.56° C | 56% | 1000.1 hPa | 0 mm | - | - | - |
| 1778139423 | 31.11° C | 55% | 1000.1 hPa | 0 mm | - | - | - |
| 1778138823 | 30.56° C | 57% | 1000.1 hPa | 0 mm | - | - | - |
| 1778138223 | 30.56° C | 56% | 1000 hPa | 0 mm | - | - | - |
| 1778137623 | 30.56° C | 56% | 1000.1 hPa | 0 mm | - | - | - |
| 1778137024 | 31.11° C | 57% | 1000.1 hPa | 0 mm | - | - | - |
| 1778136424 | 31.11° C | 55% | 1000.1 hPa | 0 mm | - | - | - |
| 1778135824 | 31.11° C | 57% | 1000.1 hPa | 0 mm | - | - | - |
| 1778135223 | 31.67° C | 59% | 1000.3 hPa | 0 mm | - | - | - |
| 1778134624 | 31.67° C | 60% | 1000.2 hPa | 0 mm | - | - | - |
| 1778134024 | 31.11° C | 58% | 1000.2 hPa | 0 mm | - | - | - |
| 1778133424 | 31.11° C | 61% | 1000.4 hPa | 0 mm | - | - | - |
| 1778132824 | 31.11° C | 58% | 1000.5 hPa | 0 mm | - | - | - |
| 1778132224 | 31.11° C | 63% | 1000.6 hPa | 0 mm | - | - | - |
| 1778131624 | 30.56° C | 64% | 1000.8 hPa | 0 mm | - | - | - |
| 1778131023 | 30.56° C | 63% | 1001 hPa | 0 mm | - | - | - |
* Rain latest hour (hover to see other rain measurements)
** Current wind speed in m/s (hover to see current wind gust speed)